This is the latest recevied weather packets stored in our database for station/object N9BID. If no packets are shown the sender has not sent any weather packets the latest 10 day(s).
| Time | Temp. | Humidity | Pressure | Rain* | Wind** | Luminosity | Snow |
|---|---|---|---|---|---|---|---|
| 1777532084 | 2.78° C | 75% | 1009 hPa | 0 mm | - | 0 W/m² | - |
| 1777531779 | 3.33° C | 75% | 1008.9 hPa | 0 mm | - | 0 W/m² | - |
| 1777531476 | 3.33° C | 74% | 1009 hPa | 0 mm | - | 0 W/m² | - |
| 1777531174 | 3.33° C | 76% | 1009.1 hPa | 0 mm | - | 0 W/m² | - |
| 1777530872 | 3.33° C | 74% | 1009.1 hPa | 0 mm | - | 0 W/m² | - |
| 1777530569 | 3.33° C | 75% | 1009.1 hPa | 0 mm | - | 0 W/m² | - |
| 1777530265 | 3.33° C | 74% | 1009 hPa | 0 mm | - | 0 W/m² | - |
| 1777529961 | 3.33° C | 74% | 1009.4 hPa | 0 mm | - | 0 W/m² | - |
| 1777529659 | 3.33° C | 72% | 1009.3 hPa | 0 mm | - | 0 W/m² | - |
| 1777529356 | 3.33° C | 73% | 1009.2 hPa | 0 mm | - | 0 W/m² | - |
| 1777529052 | 3.33° C | 72% | 1009.1 hPa | 0 mm | - | 0 W/m² | - |
| 1777528747 | 3.33° C | 72% | 1009.2 hPa | 0 mm | - | 0 W/m² | - |
| 1777528445 | 3.33° C | 72% | 1009.2 hPa | 0 mm | - | 0 W/m² | - |
| 1777528143 | 3.33° C | 71% | 1009.5 hPa | 0 mm | - | 0 W/m² | - |
| 1777527839 | 3.33° C | 72% | 1009.2 hPa | 0 mm | - | 0 W/m² | - |
| 1777527535 | 3.33° C | 72% | 1009.2 hPa | 0 mm | - | 0 W/m² | - |
| 1777527230 | 3.33° C | 75% | 1009.3 hPa | 0 mm | - | 0 W/m² | - |
| 1777526926 | 3.33° C | 77% | 1009.2 hPa | 0 mm | - | 0 W/m² | - |
| 1777526622 | 2.78° C | 78% | 1009.3 hPa | 0 mm | - | 0 W/m² | - |
| 1777526316 | 2.78° C | 79% | 1009.4 hPa | 0 mm | - | 0 W/m² | - |
| 1777526013 | 2.78° C | 78% | 1009.2 hPa | 0 mm | - | 0 W/m² | - |
| 1777525710 | 2.78° C | 77% | 1009.2 hPa | 0 mm | - | 0 W/m² | - |
| 1777525407 | 2.78° C | 76% | 1009.4 hPa | 0 mm | - | 0 W/m² | - |
| 1777525103 | 3.33° C | 75% | 1009.2 hPa | 0 mm | - | 0 W/m² | - |
| 1777524800 | 3.33° C | 74% | 1009.1 hPa | 0 mm | - | 0 W/m² | - |
* Rain latest hour (hover to see other rain measurements)
** Current wind speed in m/s (hover to see current wind gust speed)